This is the latest recevied weather packets stored in our database for station/object SR5NLK-1. If no packets are shown the sender has not sent any weather packets the latest 1 day(s).
| Time | Temp. | Humidity | Pressure | Rain* | Wind** | Luminosity | Snow |
|---|---|---|---|---|---|---|---|
| 1778051551 | 33.33° C | 31% | 1069.2 hPa | 0 mm | - | - | - |
| 1778051251 | 31.67° C | 33% | 1018.9 hPa | 0 mm | - | - | - |
| 1778050951 | 30.56° C | 33% | 1017.5 hPa | 0 mm | - | - | - |
| 1778050651 | 30.56° C | 32% | 1100.3 hPa | 0 mm | - | - | - |
| 1778050470 | 31.67° C | 32% | 1006.1 hPa | 0 mm | - | - | - |
| 1778050351 | 32.22° C | 32% | 1041 hPa | 0 mm | - | - | - |
| 1778050051 | 32.78° C | 33% | 1049 hPa | 0 mm | - | - | - |
| 1778049751 | 32.22° C | 34% | 1050.3 hPa | 0 mm | - | - | - |
| 1778049451 | 31.67° C | 35% | 1075.3 hPa | 0 mm | - | - | - |
| 1778049151 | 30.56° C | 36% | 1072.1 hPa | 0 mm | - | - | - |
| 1778048851 | 30° C | 38% | 1007 hPa | 0 mm | - | - | - |
| 1778048551 | 28.89° C | 39% | 1049.8 hPa | 0 mm | - | - | - |
| 1778048490 | 28.89° C | 39% | 1072.1 hPa | 0 mm | - | - | - |
| 1778048251 | 28.89° C | 39% | 1094 hPa | 0 mm | - | - | - |
| 1778047951 | 28.89° C | 40% | 1091.9 hPa | 0 mm | - | - | - |
| 1778047651 | 28.33° C | 41% | 1056.4 hPa | 0 mm | - | - | - |
| 1778047351 | 27.78° C | 43% | 1078.4 hPa | 0 mm | - | - | - |
| 1778046751 | 25.56° C | 48% | 974.8 hPa | 0 mm | - | - | - |
| 1778046510 | 24.44° C | 48% | 997.8 hPa | 0 mm | - | - | - |
| 1778046451 | 24.44° C | 48% | 999.7 hPa | 0 mm | - | - | - |
| 1778045851 | 22.22° C | 53% | 1049.1 hPa | 0 mm | - | - | - |
| 1778045551 | 22.22° C | 52% | 1047.8 hPa | 0 mm | - | - | - |
| 1778045251 | 22.22° C | 54% | 1045.9 hPa | 0 mm | - | - | - |
| 1778045008 | 21.11° C | 55% | 962.3 hPa | 0 mm | - | - | - |
| 1778044951 | 21.11° C | 55% | 962.3 hPa | 0 mm | - | - | - |
* Rain latest hour (hover to see other rain measurements)
** Current wind speed in m/s (hover to see current wind gust speed)